CDT,Max TemperatureF,Mean TemperatureF,Min TemperatureF,Max Dew PointF,MeanDew PointF,Min DewpointF,Max Humidity, Mean Humidity, Min Humidity, Max Sea Level PressureIn, Mean Sea Level PressureIn, Min Sea Level PressureIn, Max VisibilityMiles, Mean VisibilityMiles, Min VisibilityMiles, Max Wind SpeedMPH, Mean Wind SpeedMPH, Max Gust SpeedMPH,PrecipitationIn, CloudCover, Events, WindDirDegrees
2013-5-1,40,34,28,28,25,21,92,76,59,30.63,30.39,30.04,10,10,10,21,12,25,0.00,5,,329
2013-5-2,37,32,26,27,26,23,92,81,69,30.73,30.65,30.58,10,10,9,16,8,21,0.00,6,,354
2013-5-3,50,37,24,35,29,23,100,75,49,30.56,30.42,30.30,10,10,7,17,6,22,0.00,2,Fog,23
2013-5-4,54,42,29,38,31,25,92,67,41,30.32,30.29,30.26,10,10,10,18,10,23,0.00,5,,35
2013-5-5,62,50,37,44,38,35,93,68,42,30.27,30.20,30.10,10,10,10,15,6,20,0.00,4,,34
2013-5-6,72,53,34,45,39,34,100,64,27,30.12,30.06,29.99,10,8,0,10,5,15,0.00,0,Fog,170
2013-5-7,76,60,44,49,45,42,89,61,33,29.99,29.93,29.84,10,10,7,20,8,29,0.00,1,,177
2013-5-8,65,54,42,45,41,31,82,63,43,30.15,30.01,29.86,10,10,10,29,18,35,0.00,3,,350
2013-5-9,63,48,33,32,27,14,82,48,14,30.25,30.19,30.13,10,10,10,23,13,28,0.00,0,,23
2013-5-10,68,49,29,42,32,23,92,62,32,30.18,30.04,29.87,10,10,10,38,16,47,0.00,2,,279
2013-5-11,50,39,28,32,25,18,82,56,29,30.31,30.26,30.17,10,10,10,35,18,40,0.00,2,,341
2013-5-12,63,44,25,25,21,17,81,50,19,30.27,30.16,29.97,10,10,10,16,5,18,0.00,2,,268
2013-5-13,90,69,48,43,32,23,61,39,17,29.96,29.69,29.50,10,10,8,33,16,38,T,4,,176
2013-5-14,77,62,47,59,48,37,87,60,33,29.73,29.56,29.46,10,10,4,40,16,48,0.19,3,Rain-Thunderstorm,266
2013-5-15,79,61,42,45,40,36,89,55,21,29.84,29.78,29.75,10,10,8,18,9,28,0.00,3,,283
2013-5-16,75,59,42,54,43,32,93,58,22,29.98,29.91,29.85,10,10,6,25,8,31,0.31,5,Rain,71
2013-5-17,74,64,53,54,48,42,93,65,37,29.93,29.88,29.83,10,10,10,22,11,26,T,7,,114
2013-5-18,69,62,54,60,56,52,100,87,73,29.84,29.81,29.78,10,10,6,20,9,25,0.04,8,Rain,74
2013-5-19,62,58,53,59,55,52,100,92,84,29.81,29.67,29.60,10,8,2,29,19,38,1.35,8,Rain,55
2013-5-20,55,53,50,54,52,48,100,97,93,29.65,29.56,29.51,10,5,2,30,20,38,1.42,8,Rain,56
2013-5-21,52,48,44,48,45,42,100,89,77,29.91,29.78,29.65,10,8,2,28,17,35,0.29,8,Rain,38
2013-5-22,73,57,41,46,40,35,93,62,30,30.12,29.98,29.91,10,10,10,25,14,31,0.00,2,,33
2013-5-23,66,55,43,41,33,27,83,53,22,30.33,30.27,30.16,10,10,10,15,8,21,0.00,0,,74
2013-5-24,69,55,40,49,40,32,76,52,27,30.26,30.20,30.13,10,9,5,24,13,35,0.06,6,Rain-Thunderstorm,149
2013-5-25,73,63,52,52,51,50,96,72,47,30.12,30.09,30.06,10,10,10,22,15,30,0.00,7,,146
2013-5-26,63,59,55,50,47,43,83,68,53,30.10,30.06,30.02,10,10,10,25,14,31,T,8,,145
2013-5-27,69,61,53,56,50,43,83,69,55,29.98,29.87,29.75,10,10,7,18,9,25,0.01,8,Rain,150
2013-5-28,74,65,56,57,55,52,86,70,53,29.74,29.64,29.56,10,10,8,20,11,25,T,7,,181
2013-5-29,76,66,55,59,55,52,93,70,46,29.65,29.63,29.60,10,10,10,18,5,22,0.00,6,,141
2013-5-30,77,69,60,66,62,57,93,77,60,29.60,29.45,29.37,10,8,1,22,14,30,0.39,7,Rain,98
2013-5-31,69,60,50,63,59,50,100,84,68,29.65,29.41,29.32,10,8,2,26,12,35,0.73,7,Rain,84